Regional Weather Roundup
Issued by NWS Charleston, WV

Home | Current Version | Previous Version | Graphics & Text | Print | Product List | Glossary On
Versions: 1 2 3 4 5 6 7 8 9 10 11 12 13 14 15 16 17 18 19 20 21 22 23 24 25 26 27
000
ASUS41 KRLX 231810
RWRRLX
West Virginia Regional Weather Roundup
National Weather Service Charleston WV
200 PM EDT WED APR 23 2014

Note: "fair" indicates few or no clouds below 12,000 feet with no
significant weather and/or obstructions to visibility.

WVZ003-231900-
Northern Panhandle of West Virginia

CITY           SKY/WX    TMP DP  RH WIND       PRES   REMARKS
WHEELING       PTSUNNY   46  32  58 NW12G22   30.02S
$$

WVZ009-231900-
Northwest West Virginia

CITY           SKY/WX    TMP DP  RH WIND       PRES   REMARKS
PARKERSBURG    PTSUNNY   53  32  44 NW8       30.07S
$$

WVZ006-231900-
Western West Virginia

CITY           SKY/WX    TMP DP  RH WIND       PRES   REMARKS
HUNTINGTON     SUNNY     58  32  37 NW9G16    30.05S
$$

WVZ015-231900-
West Central West Virginia

CITY           SKY/WX    TMP DP  RH WIND       PRES   REMARKS
CHARLESTON     PTSUNNY   56  31  38 NW9G24    30.01F
$$

WVZ031-231900-
North Central West Virginia

CITY           SKY/WX    TMP DP  RH WIND       PRES   REMARKS
CLARKSBURG     CLOUDY    50  31  48 NW8G18    30.00F
MORGANTOWN       N/A     50  31  48 VRB7      30.00
$$

WVZ035-042-045-231900-
South Central West Virginia

CITY           SKY/WX    TMP DP  RH WIND       PRES   REMARKS
BECKLEY        SUNNY     54  29  38 NW13G21   29.97S
BLUEFIELD      SUNNY     56  25  30 NW12G24   29.96S
LEWISBURG      SUNNY     55  26  32 NW9G23    29.93R
$$

WVZ047-231900-
Northern Mountains of West Virginia

CITY           SKY/WX    TMP DP  RH WIND       PRES   REMARKS
ELKINS         CLOUDY    48  30  49 NW13      29.97F
$$

WVZ052-231900-
Eastern Panhandle of West Virginia

CITY           SKY/WX    TMP DP  RH WIND       PRES   REMARKS
MARTINSBURG    MOSUNNY   55  32  41 W21G29    29.89R
PETERSBURG     MOSUNNY   58  38  47 NW13G23   29.95R
$$



USA.gov is the U.S. government's official web portal to all federal, state and local government web resources and services.